Lapeer, MI

10:13 AM EDT on October 23, 2017 (GMT -0400)
Lapeer

Weather History for KD95 - December, 2012

Change the Weather History Date:

Tuesday, December 4, 2012

  Actual Average (KFNT) Record (KFNT)
Temperature  
Mean Temperature 50 °F -  
Max Temperature 62 °F 36 °F 65 °F (2012)
Min Temperature 38 °F 23 °F -4 °F (2002)
Degree Days  
Heating Degree Days 14    
Moisture  
Dew Point 46 °F    
Average Humidity 84    
Maximum Humidity 100    
Minimum Humidity 62    
Precipitation  
Precipitation 0.28 in - - ()
Sea Level Pressure  
Sea Level Pressure 29.95 in    
Wind  
Wind Speed 10 mph ()    
Max Wind Speed 18 mph    
Max Gust Speed 29 mph    
Visibility 9.3 miles    
Events Rain    
Averages and records for this station are not official NWS values.
T = Trace of Precipitation, MM = Missing Value Source: Averaged Metar Reports

Daily Weather History Graph

Daily Weather History Graph

Search for Another Location

Airport or City:

Trip Planner

Search our weather history database for the weather conditions in past years. The results will help you decide how hot, cold, wet, or windy it might be!

Date:

Astronomy

Dec. 04, 2012 Rise Set
Actual Time 7:48 AM EST 4:58 PM EST
Civil Twilight 7:16 AM EST 5:30 PM EST
Nautical Twilight 6:40 AM EST 6:05 PM EST
Astronomical Twilight 6:06 AM EST 6:40 PM EST
Moon 10:50 PM EST (12/4) 11:36 AM EST (12/4)
Length of Visible Light 10h 13m
Length of Day
9h 09m
Waning Gibbous, 69% of the Moon is Illuminated
Dec 4
Waning Gibbous
Dec 6
Last Quarter
Dec 13
New
Dec 20
First Quarter
Dec 28
Full

Hourly Weather History & Observations

Time (EST) Temp. Windchill Dew Point Humidity Pressure Visibility Wind Dir Wind Speed Gust Speed Precip Events Conditions
12:13 AM 62.6 °F - 59.0 °F 88% 29.87 in 10.0 mi SSW 17.3 mph 28.8 mph N/A   Overcast
12:33 AM 62.1 °F - 60.6 °F 95% 29.88 in 10.0 mi SSW 16.1 mph 26.5 mph N/A   Overcast
12:53 AM 61.9 °F - 60.8 °F 96% 29.87 in 10.0 mi SSW 18.4 mph 25.3 mph N/A   Overcast
1:13 AM 61.7 °F - 61.0 °F 97% 29.86 in 10.0 mi SSW 17.3 mph 25.3 mph N/A   Overcast
1:33 AM 61.0 °F - 61.0 °F 100% 29.86 in 10.0 mi SSW 15.0 mph 23.0 mph N/A   Mostly Cloudy
1:53 AM 61.3 °F - 61.3 °F 100% 29.86 in 10.0 mi SSW 15.0 mph 26.5 mph N/A   Mostly Cloudy
2:13 AM 61.3 °F - 61.3 °F 100% 29.86 in 10.0 mi SSW 17.3 mph 26.5 mph N/A   Overcast
2:33 AM 61.5 °F - 61.5 °F 100% 29.87 in 10.0 mi SSW 17.3 mph 23.0 mph N/A   Overcast
2:53 AM 61.7 °F - 61.3 °F 99% 29.87 in 10.0 mi SSW 13.8 mph 21.9 mph N/A   Overcast
3:13 AM 61.7 °F - 61.7 °F 100% 29.87 in 10.0 mi SSW 13.8 mph 19.6 mph N/A   Overcast
3:53 AM 61.7 °F - 61.7 °F 100% 29.87 in 10.0 mi SSW 11.5 mph - N/A   Overcast
4:13 AM 61.3 °F - 61.3 °F 100% 29.86 in 10.0 mi SSW 12.7 mph 17.3 mph N/A   Overcast
4:33 AM 61.2 °F - 61.2 °F 100% 29.86 in 10.0 mi SW 9.2 mph 18.4 mph N/A Rain Light Rain
4:53 AM 60.8 °F - 60.8 °F 100% 29.87 in 10.0 mi SW 12.7 mph - N/A   Overcast
5:13 AM 60.1 °F - 60.1 °F 100% 29.87 in 10.0 mi SSW 10.4 mph - N/A   Overcast
5:33 AM 59.9 °F - 59.9 °F 100% 29.87 in 10.0 mi SSW 12.7 mph 17.3 mph N/A   Overcast
5:53 AM 59.5 °F - 59.5 °F 100% 29.87 in 10.0 mi SSW 13.8 mph - N/A   Overcast
6:13 AM 58.5 °F - 58.5 °F 100% 29.86 in 7.0 mi SSW 11.5 mph - 0.01 in Rain Light Rain
6:33 AM 58.1 °F - 58.1 °F 100% 29.89 in 7.0 mi West 6.9 mph - 0.02 in Rain Heavy Rain
6:53 AM 57.4 °F - 57.4 °F 100% 29.89 in 5.0 mi WSW 4.6 mph - 0.05 in Rain Rain
7:13 AM 57.2 °F - 57.2 °F 100% 29.90 in 5.0 mi West 5.8 mph - 0.01 in Rain Light Rain
7:33 AM 55.0 °F - 55.0 °F 100% 29.92 in 4.0 mi West 12.7 mph 17.3 mph 0.07 in Rain Heavy Rain
7:53 AM 53.2 °F - 53.2 °F 100% 29.93 in 5.0 mi WNW 8.1 mph - 0.15 in Rain Heavy Rain
8:13 AM 52.0 °F - 52.0 °F 100% 29.94 in 7.0 mi West 9.2 mph - 0.03 in Rain Light Rain
8:33 AM 50.9 °F - 50.9 °F 100% 29.95 in 7.0 mi West 4.6 mph - 0.04 in Rain Rain
8:53 AM 50.2 °F - 50.2 °F 100% 29.96 in 10.0 mi West 6.9 mph - 0.06 in Rain Light Rain
9:13 AM 50.0 °F - 50.0 °F 100% 29.97 in 7.0 mi West 6.9 mph - 0.01 in Rain Light Rain
9:33 AM 49.3 °F - 49.3 °F 100% 29.98 in 7.0 mi West 4.6 mph - 0.02 in Rain Light Rain
9:53 AM 49.5 °F - 49.5 °F 100% 29.96 in 7.0 mi West 6.9 mph - 0.02 in Rain Rain
10:13 AM 49.3 °F - 49.3 °F 100% 29.96 in 7.0 mi West 5.8 mph - N/A Rain Light Rain
10:33 AM 49.3 °F - 49.3 °F 100% 29.96 in 10.0 mi WSW 6.9 mph - N/A   Overcast
10:53 AM 49.3 °F - 49.1 °F 99% 29.97 in 10.0 mi West 8.1 mph - N/A   Mostly Cloudy
11:13 AM 49.5 °F - 49.5 °F 100% 29.96 in 10.0 mi WSW 6.9 mph - N/A   Overcast
11:34 AM 50.0 °F - 49.6 °F 99% 29.96 in 10.0 mi West 10.4 mph - N/A   Overcast
11:53 AM 50.0 °F - 47.7 °F 92% 29.95 in 10.0 mi WSW 8.1 mph - N/A   Mostly Cloudy
12:13 PM 49.5 °F - 47.8 °F 94% 29.94 in 10.0 mi WSW 6.9 mph - N/A   Mostly Cloudy
12:34 PM 49.5 °F - 45.1 °F 85% 29.95 in 10.0 mi West 8.1 mph - N/A   Overcast
1:13 PM 49.1 °F - 40.8 °F 73% 29.95 in 10.0 mi West 8.1 mph - N/A   Overcast
1:33 PM 49.1 °F - 41.0 °F 74% 29.95 in 10.0 mi West 6.9 mph - N/A   Mostly Cloudy
1:53 PM 49.1 °F - 40.1 °F 71% 29.95 in 10.0 mi West 9.2 mph - N/A   Scattered Clouds
2:13 PM 49.1 °F - 40.3 °F 72% 29.95 in 10.0 mi West 9.2 mph - N/A   Clear
2:34 PM 49.3 °F - 38.3 °F 66% 29.95 in 10.0 mi West 9.2 mph 16.1 mph N/A   Clear
2:53 PM 49.1 °F - 38.3 °F 66% 29.95 in 10.0 mi West 8.1 mph 18.4 mph N/A   Clear
3:13 PM 49.3 °F - 39.0 °F 68% 29.95 in 10.0 mi West 6.9 mph - N/A   Clear
3:34 PM 49.3 °F - 39.2 °F 68% 29.95 in 10.0 mi West 5.8 mph - N/A   Clear
3:53 PM 50.0 °F - 38.7 °F 65% 29.96 in 10.0 mi West 9.2 mph - N/A   Clear
4:13 PM 49.3 °F - 37.8 °F 65% 29.96 in 10.0 mi West 8.1 mph 16.1 mph N/A   Clear
4:33 PM 48.7 °F - 37.4 °F 65% 29.97 in 10.0 mi WSW 6.9 mph - N/A   Clear
4:53 PM 48.2 °F - 37.2 °F 66% 29.98 in 10.0 mi WSW 5.8 mph - N/A   Clear
5:13 PM 46.9 °F - 37.2 °F 69% 29.98 in 10.0 mi WSW 4.6 mph - N/A   Clear
5:53 PM 46.4 °F 43.5 °F 36.9 °F 69% 29.98 in 10.0 mi WSW 5.8 mph - N/A   Clear
6:13 PM 46.2 °F 42.7 °F 36.7 °F 69% 29.99 in 10.0 mi WSW 6.9 mph - N/A   Clear
6:33 PM 45.5 °F 42.5 °F 36.5 °F 71% 29.99 in 10.0 mi WSW 5.8 mph - N/A   Clear
6:53 PM 45.5 °F 40.8 °F 35.1 °F 67% 29.99 in 10.0 mi West 9.2 mph - N/A   Clear
7:13 PM 45.5 °F 40.3 °F 33.6 °F 63% 30.00 in 10.0 mi WSW 10.4 mph - N/A   Clear
7:33 PM 45.3 °F 40.1 °F 33.1 °F 62% 30.00 in 10.0 mi West 10.4 mph - N/A   Clear
7:53 PM 44.8 °F 39.9 °F 32.9 °F 63% 30.00 in 10.0 mi West 9.2 mph - N/A   Clear
8:13 PM 44.2 °F 39.2 °F 32.9 °F 64% 30.01 in 10.0 mi West 9.2 mph - N/A   Clear
8:33 PM 43.9 °F 39.9 °F 32.9 °F 65% 30.02 in 10.0 mi West 6.9 mph - N/A   Clear
8:53 PM 43.5 °F 38.3 °F 32.9 °F 66% 30.02 in 10.0 mi West 9.2 mph - N/A   Clear
9:13 PM 43.5 °F 38.3 °F 32.9 °F 66% 30.03 in 10.0 mi West 9.2 mph - N/A   Clear
9:33 PM 43.2 °F 38.4 °F 32.9 °F 67% 30.04 in 10.0 mi West 8.1 mph - N/A   Clear
9:53 PM 42.4 °F 37.5 °F 32.9 °F 69% 30.04 in 10.0 mi West 8.1 mph - N/A   Clear
10:13 PM 42.1 °F 37.1 °F 32.7 °F 69% 30.05 in 10.0 mi WNW 8.1 mph - N/A   Clear
10:33 PM 41.2 °F 37.3 °F 32.5 °F 71% 30.06 in 10.0 mi WNW 5.8 mph - N/A   Clear
10:53 PM 40.5 °F 34.6 °F 32.0 °F 72% 30.06 in 10.0 mi WNW 9.2 mph - N/A   Clear
11:13 PM 40.1 °F 34.1 °F 31.3 °F 71% 30.07 in 10.0 mi WNW 9.2 mph 16.1 mph N/A   Clear
11:33 PM 39.4 °F 32.7 °F 30.7 °F 71% 30.08 in 10.0 mi WNW 10.4 mph - N/A   Clear
11:53 PM 38.7 °F 32.9 °F 30.6 °F 73% 30.09 in 10.0 mi WNW 8.1 mph - N/A   Clear